Regional Weather Roundup
Issued by NWS Columbia, SC

Home | Current Version | Previous Version | Text Only | Print | Product List | Glossary On
Versions: 1 2 3 4 5 6 7 8 9 10 11 12 13 14 15 16 17 18 19 20 21 22 23 24 25 26 27 28 29 30 31 32 33 34 35 36 37 38 39 40 41 42 43 44 45 46 47 48 49 50
000
ASUS42 KCAE 300810
RWRCAE
REGIONAL WEATHER ROUNDUP
NATIONAL WEATHER SERVICE COLUMBIA SC
300 AM EST FRI JAN 30 2015

NOTE: "FAIR" INDICATES FEW OR NO CLOUDS BELOW 12,000 FEET WITH NO
SIGNIFICANT WEATHER AND/OR OBSTRUCTIONS TO VISIBILITY.

NOT ALL STATIONS ARE QUALITY CONTROLLED BY THE NATIONAL
WEATHER SERVICE. USE DATA WITH CAUTION...ESPECIALLY
DEWPOINT OBSERVATIONS.

SCZ001>056-GAZ040-063>065-077-300900-
...UPSTATE SOUTH CAROLINA...

CITY           SKY/WX    TMP DP  RH WIND       PRES   REMARKS
ANDERSON       CLOUDY    48  34  58 W14       30.04R
LIBERTY        MOSUNNY   41  32  71 MISG      30.02R
SPARTANBURG    PTCLDY    50  32  50 NW8       30.02S
CLEMSON        PTCLDY    49  33  54 NW7       30.04R
GREENVILLE     CLOUDY    46  29  51 N8        30.03R
GREENWOOD      CLOUDY    49  33  54 W9        30.03F
GREER          CLOUDY    46  30  53 W3        30.01R
ROCK HILL      CLOUDY    46  29  51 W7        30.00S
CHESTER        CLOUDY    46  30  53 SW3       30.01S
LAURENS        CLOUDY    46  37  71 SW8       30.01F


...CENTRAL SOUTH CAROLINA...

CITY           SKY/WX    TMP DP  RH WIND       PRES   REMARKS
COLUMBIA APT   CLOUDY    52  33  48 W8        30.02F
COLUMBIA OWENS CLOUDY    52  33  48 SW5       30.03F
DARLINGTON     MOCLDY    46  36  66 SW8       30.01F
FLORENCE       MOCLDY    50  39  66 SW10      30.00F
MCENTIRE ANGB  CLOUDY    51  35  53 SW8       30.02F
ORANGEBURG     CLOUDY    53  35  50 SW14      30.03F
SUMTER SHAW    CLOUDY    50  37  61 SW13      30.00F
NEWBERRY       CLOUDY    46  34  61 W7        30.04S
AIKEN          PTSUNNY   50  36  57 SW12G17   30.06F
BARNWELL       PTSUNNY   54  36  50 SW5       30.05F
MANNING        PTSUNNY   52  37  58 SW7       30.05F
CAMDEN         FAIR      46  32  57 SW7       30.01F
LANCASTER      PTSUNNY   43  28  56 W3        30.00S
WINNSBORO      MOSUNNY   48  34  57 SW7       30.00F


...EASTERN AND COASTAL SOUTH CAROLINA...

CITY           SKY/WX    TMP DP  RH WIND       PRES   REMARKS
MYRTLE BEACH   CLOUDY    54  43  66 SW6       30.06F
N MYRTLE BCH   CLOUDY    51  45  79 SW9       30.03F
CONWAY         PTSUNNY   50  43  76 S3        30.04F
MARION         FAIR      50  39  66 CALM      30.02F
HARTSVILLE     PTSUNNY   48  43  81 SW6       30.00F
FLORENCE       MOCLDY    50  39  66 SW10      30.00F
DARLINGTON     MOCLDY    46  36  66 SW8       30.01F
CHARLESTON APT CLOUDY    53  44  71 SW7       30.08F
MOUNT PLEASANT PTSUNNY   54  46  76 CALM      30.08F
WALTERBORO     CLOUDY    52  41  66 SW7       30.07F
BEAUFORT       CLOUDY    52  43  71 SW7       30.08F


...EASTERN GEORGIA...

CITY           SKY/WX    TMP DP  RH WIND       PRES   REMARKS
AUGUSTA BUSH F CLOUDY    51  36  56 SW9       30.04F
AUGUSTA DANIEL CLOUDY    53  38  56 VRB7      30.04F
THOMSON        PTCLDY    52  43  70 SW6       30.09F
WASHINGTON     FAIR      54  43  66 W8        30.05S
CLAXTON        FAIR      52  39  62 SW3       30.10F
SYLVANIA       CLOUDY    54  41  61 W3        30.08F
STATESBORO     CLOUDY    54  41  61 W7        30.08F
SAVANNAH       CLOUDY    52  38  58 SW6       30.10F


...SOUTHERN NORTH CAROLINA...

CITY           SKY/WX    TMP DP  RH WIND       PRES   REMARKS
CHARLOTTE      CLOUDY    45  27  49 NW8       30.01R
MONROE         CLOUDY    45  28  51 W8        29.99S
WADESBORO      CLOUDY    47  29  49 SW5       29.99S
ROCKINGHAM       N/A     44  33  65 S7        29.97F
RUTHERFORDTON  MOCLDY    46  31  56 W16G23    30.04R
ASHEVILLE      CLOUDY    37  28  70 N16G30    30.06S WCI  28

$$


USA.gov is the U.S. government's official web portal to all federal, state and local government web resources and services.